Address 0x6d361440dd4746387eff1ae65ddbfe891059e0ce 7

 
Txn Hash Method
Block
From
To
Value [Txn Fee]
0x972cf424e53135a642af45318ea519b9f852d22b413dba6e77ee1957c43814baHandle Rewards556318132023-01-26 15:12:3812 days 2 hrs ago0x6d361440dd4746387eff1ae65ddbfe891059e0ceOUT GMX: Reward Router0 ETH0.00013517
0x8cc064f51db6aef59c56ba5cbe4df122c5b2f87fdaa30dbc93185715dd99b5b1Stake407072602022-11-24 2:53:0675 days 15 hrs ago0x6d361440dd4746387eff1ae65ddbfe891059e0ceOUT 0xdb4736ee9cf22d79501e4c079ac8ca090694274b0 ETH0.00206905
0x542e0ab60b9ff0cadb9505bff96dd3f837ab404806a67e6552a14a8ac96a3c0aSet Approval For...407072082022-11-24 2:52:4675 days 15 hrs ago0x6d361440dd4746387eff1ae65ddbfe891059e0ceOUT 0xcc737e05a6b5d94cafa523e55c5689631c8e97a40 ETH0.00053522
0x789217cba1ef83d845a6ddcd132d6120e2b72e2266ad53504ea4d8c9a4933779Create Decrease ...163350892022-06-29 2:28:40223 days 15 hrs ago0x6d361440dd4746387eff1ae65ddbfe891059e0ceOUT0x3d6ba331e3d9702c5e8a8d254e5d8a285f223aba0.0006 ETH0.001159179795 ETH
0x68e9cebe608fad7b24ab676818fe5018f082a8f3d0865ea1e8edb60f36fbc8ddCreate Increase ...163350402022-06-29 2:28:40223 days 15 hrs ago0x6d361440dd4746387eff1ae65ddbfe891059e0ceOUT0x3d6ba331e3d9702c5e8a8d254e5d8a285f223aba0.0106 ETH0.001124105785 ETH
0xcf045a722e167b11cc68cf17be3fb51569af1e3956fa5ebeda912b58771df482Mint And Stake G...163347612022-06-29 2:27:10223 days 15 hrs ago0x6d361440dd4746387eff1ae65ddbfe891059e0ceOUT GMX: Reward Router0.01 ETH0.006107090462 ETH
0x2272d41a52064e8b6012709b4d8e3594b3ba5ac29ed270c6d41538885c4c86adSwap Tokens To E...163346602022-06-29 2:26:24223 days 15 hrs ago0x6d361440dd4746387eff1ae65ddbfe891059e0ceOUT GMX: Router0 ETH0.002184564563 ETH
0xc983da5f31e200c704272d76edd01acf616f0c611c82f8fe3a5c5e25a511fd9eBatch163345282022-06-29 2:25:38223 days 15 hrs ago0x6d361440dd4746387eff1ae65ddbfe891059e0ceOUT 0x16e25cf364cecc305590128335b8f327975d05600 ETH0.001082042959 ETH
0xd2d89b9dbb1141dc354f78763744131dfee35490d5cb7340cc698baba88c0502Batch163343762022-06-29 2:24:38223 days 15 hrs ago0x6d361440dd4746387eff1ae65ddbfe891059e0ceOUT 0x16e25cf364cecc305590128335b8f327975d05600 ETH0.001942789781 ETH
0x5a8969e94886b8575a3de77a84e409201de27f30be827d0f65ca828c25b903f7Withdraw163342352022-06-29 2:23:20223 days 15 hrs ago0x6d361440dd4746387eff1ae65ddbfe891059e0ceOUT 0x82af49447d8a07e3bd95bd0d56f35241523fbab10 ETH0.000385469031 ETH
0x1c9e84c9554b154ab6c98101234c486aa1d93b214ff2ba57c6dd0a07fff07d6cSwap Exact ETH F...163332482022-06-29 2:16:46223 days 15 hrs ago0x6d361440dd4746387eff1ae65ddbfe891059e0ceOUT SushiSwap: Router0.005 ETH0.000884063111 ETH
0x5da2e2b60a7b6075adbe6734a29561b9a4923a5ff2474a3d0ff973da63918615Batch163325922022-06-29 2:12:13223 days 15 hrs ago0x6d361440dd4746387eff1ae65ddbfe891059e0ceOUT 0x16e25cf364cecc305590128335b8f327975d05600.13 ETH0.001970132077 ETH
0x838343755538eb1a01d1638ebb525d14595f5efbb821641c3ee9cc4541904510Claim163316392022-06-29 2:08:11223 days 15 hrs ago0x6d361440dd4746387eff1ae65ddbfe891059e0ceOUT Galxe: NFT Space Station0 ETH0.00082083857 ETH
0x0b947bf40470e6c50e5fb890fce91c7142948546f76d27d5a10cb77d8c012dccDeposit142431402022-06-10 16:21:58242 days 1 hr ago0x6d361440dd4746387eff1ae65ddbfe891059e0ceOUT Umami: cmUMAMI Token0 ETH0.000248091708 ETH
0x4a3af9dea812934abb2af6dfc546a864057f46d28f0662c8fa5eebef7b82ed27Stake142431082022-06-10 16:21:15242 days 1 hr ago0x6d361440dd4746387eff1ae65ddbfe891059e0ceOUT 0x2adabd6e8ce3e82f52d9998a7f64a90d294a92a40 ETH0.000330283067 ETH
0x4dc8f5c526e60cd722c2cb073edb1b6de75d95c94d3d8c80717e2ddb6c3a02b6Exchange142430672022-06-10 16:20:22242 days 1 hr ago0x6d361440dd4746387eff1ae65ddbfe891059e0ceOUT 0x8eade6a7302fbd007d955ff7817ba3e2c8ebbf870 ETH0.000249233116 ETH
0xb30fb2630bd0718adc9b1a918a4894ab870817259c23478f4b2e8718bf772f98Approve142429972022-06-10 16:19:57242 days 1 hr ago0x6d361440dd4746387eff1ae65ddbfe891059e0ceOUT Arbi's Finance: ARBIS Token0 ETH0.000303152461 ETH
0xa2d70958644086cf8ad093a80b23f4001e03bb10cf9b4503bb17ee370ec59c81Withdraw142429062022-06-10 16:18:14242 days 1 hr ago0x6d361440dd4746387eff1ae65ddbfe891059e0ceOUT Arbi's Finance: stARBIS Token0 ETH0.000248563785 ETH
0xe787bb44d2ea482220755a1f76d62486f1ce9c42541acfc66d30e5815c772973Collect Rewards142428502022-06-10 16:17:25242 days 1 hr ago0x6d361440dd4746387eff1ae65ddbfe891059e0ceOUT Arbi's Finance: stARBIS Token0 ETH0.000238911129 ETH
0x51ee920f3b71cbb4f30dae207fccba24aba9cc81881019c5ff356d3e7950e33bWithdraw133975162022-06-01 4:43:06251 days 13 hrs ago0x6d361440dd4746387eff1ae65ddbfe891059e0ceOUT 0x6a0f4afb31e90c378fa2aaa40371a652578f339b0 ETH0.000302564315 ETH
0x71b832d7a8a1cd714f700fe7efe0e92b3845cc9b28c41c4a22227fe340386746Create Increase ...118695542022-05-12 5:21:13271 days 12 hrs ago0x6d361440dd4746387eff1ae65ddbfe891059e0ceOUT0x3d6ba331e3d9702c5e8a8d254e5d8a285f223aba0.0203 ETH0.00176253505 ETH
0xbee74e5a3673da798455b23bedfa37c96e9dc884e5dfa4f464383f20091443abCreate Increase ...118694672022-05-12 5:20:41271 days 12 hrs ago0x6d361440dd4746387eff1ae65ddbfe891059e0ceOUT0x3d6ba331e3d9702c5e8a8d254e5d8a285f223aba0.0203 ETH0.001829017196 ETH
0x90fd1580c05c303d9f10340e0ad08683f13224b8e73085dc4fb42e1b298723c2Approve Plugin118694402022-05-12 5:19:45271 days 12 hrs ago0x6d361440dd4746387eff1ae65ddbfe891059e0ceOUT GMX: Router0 ETH0.000670892419 ETH
0x234fe31c7a70123aa0d94ccddeec2aacd2cdd6066dc34d2d7c8af79365a660d7Stake98886512022-04-16 2:11:35297 days 15 hrs ago0x6d361440dd4746387eff1ae65ddbfe891059e0ceOUT Arbi's Finance: stARBIS Token0 ETH0.000192467902 ETH
0xc405c355a61fd89f4e07bc83846723d0930245c2317c15d657944ad3cfac4f92Remove Liquidity...98886372022-04-16 2:10:49297 days 15 hrs ago0x6d361440dd4746387eff1ae65ddbfe891059e0ceOUT SushiSwap: Router0 ETH0.000371845442 ETH
[ Download CSV Export 
Latest 25 internal transaction
Parent Txn Hash Block From To Value
0x972cf424e53135a642af45318ea519b9f852d22b413dba6e77ee1957c43814ba556318132023-01-26 15:12:3812 days 2 hrs ago GMX: Reward Router0x6d361440dd4746387eff1ae65ddbfe891059e0ce0.00973280933698764 ETH
0x6c120d10414c026d18012d5141498e5cfa7e6aeedb1ef8a6916a13bb16fc7341163350942022-06-29 2:28:40223 days 15 hrs ago 0x3d6ba331e3d9702c5e8a8d254e5d8a285f223aba0x6d361440dd4746387eff1ae65ddbfe891059e0ce0.009886960441872245 ETH
0x2272d41a52064e8b6012709b4d8e3594b3ba5ac29ed270c6d41538885c4c86ad163346602022-06-29 2:26:24223 days 15 hrs ago GMX: Router0x6d361440dd4746387eff1ae65ddbfe891059e0ce0.0049645615 ETH
0xc983da5f31e200c704272d76edd01acf616f0c611c82f8fe3a5c5e25a511fd9e163345282022-06-29 2:25:38223 days 15 hrs ago 0x16e25cf364cecc305590128335b8f327975d05600x6d361440dd4746387eff1ae65ddbfe891059e0ce0.13 ETH
0xd2d89b9dbb1141dc354f78763744131dfee35490d5cb7340cc698baba88c0502163343762022-06-29 2:24:38223 days 15 hrs ago 0x16e25cf364cecc305590128335b8f327975d05600x6d361440dd4746387eff1ae65ddbfe891059e0ce0 ETH
0x5a8969e94886b8575a3de77a84e409201de27f30be827d0f65ca828c25b903f7163342352022-06-29 2:23:20223 days 15 hrs ago 0x82af49447d8a07e3bd95bd0d56f35241523fbab10x6d361440dd4746387eff1ae65ddbfe891059e0ce0.074431467200680204 ETH
0x20cb85d413eee8df99f4a07280f497f93426fae091a7cecd0734977eb0419da8163341822022-06-29 2:23:12223 days 15 hrs ago Hop Protocol: ETH Wrapper0x6d361440dd4746387eff1ae65ddbfe891059e0ce0.199641957067922529 ETH
0x747a2cee9c09ce1b2aafbb0b59df9b565a90ca530b5b63ad024f34da6591b4cd153157542022-06-22 2:31:11230 days 15 hrs ago Hop Protocol: ETH Wrapper0x6d361440dd4746387eff1ae65ddbfe891059e0ce0.099850954722583486 ETH
0x9944494ac178bd01b767c48f797b265d8b097e31a8b5a416423a82096a0164c0118694782022-05-12 5:20:41271 days 12 hrs ago 0x3d6ba331e3d9702c5e8a8d254e5d8a285f223aba0x6d361440dd4746387eff1ae65ddbfe891059e0ce0.02 ETH
0xc405c355a61fd89f4e07bc83846723d0930245c2317c15d657944ad3cfac4f9298886372022-04-16 2:10:49297 days 15 hrs ago SushiSwap: Router0x6d361440dd4746387eff1ae65ddbfe891059e0ce0.022429882855433696 ETH
0x43fb6dc225d125f57d2feb93b1cd9b7b1545a0a7ddb538cffafad9d0d8ddd29398884812022-04-16 2:07:08297 days 15 hrs ago SushiSwap: Router0x6d361440dd4746387eff1ae65ddbfe891059e0ce0.028699155466145121 ETH
0x1491884f4971edc0477a8e2a311170f93a7faf73cf80da2d6be03f89700d9f6398884772022-04-16 2:06:33297 days 15 hrs ago 0x6d361440dd4746387eff1ae65ddbfe891059e0ce 0x3f770ac673856f105b586bb393d122721265ad460 ETH
0x8d950192e0b74fd71eb44584fdd7bb3bb7c2488cef847cf7242d424190215c1086226532022-03-26 5:16:39318 days 12 hrs ago GMX: Reward Router0x6d361440dd4746387eff1ae65ddbfe891059e0ce0.002401757125841976 ETH
0x96546448f18a75f800f71806cef02c72634e4bb12230cf40a193957fe573f84286225232022-03-26 5:14:21318 days 12 hrs ago 0x6d361440dd4746387eff1ae65ddbfe891059e0ce Uniswap V3: Router 20.45 ETH
0xab0a015b603defca1e91efb421ac56c9ebb5c2751d5d3f64846daa42800c5c3386224952022-03-26 5:13:12318 days 12 hrs ago 0x82af49447d8a07e3bd95bd0d56f35241523fbab10x6d361440dd4746387eff1ae65ddbfe891059e0ce0.45 ETH
0xab0a015b603defca1e91efb421ac56c9ebb5c2751d5d3f64846daa42800c5c3386224952022-03-26 5:13:12318 days 12 hrs ago 0x6d361440dd4746387eff1ae65ddbfe891059e0ce 0x8b194beae1d3e0788a1a35173978001acdfba6680 ETH
0xf028349e064b0000860f0769a925eca9edd6c328e67cb8ca78a13f6d74bf7fd486220102022-03-26 4:58:17318 days 13 hrs ago 0x6d361440dd4746387eff1ae65ddbfe891059e0ce Uniswap V3: Router 20.19 ETH
0xac6f0b8eec9a496b31395bc5f8bf43b2b6bf42c2b0ef4302db1021599757820145653722022-01-11 17:13:27392 days 50 mins ago GMX: Router0x6d361440dd4746387eff1ae65ddbfe891059e0ce0.086338868761144415 ETH
0xa89d5e183360bd5d986baf78ded4f593943565f2fb39d8d6a9b30ef0ec20dc9145180992022-01-10 2:04:39393 days 15 hrs ago SushiSwap: Router0x6d361440dd4746387eff1ae65ddbfe891059e0ce0.002746733807647813 ETH
0x592e485c879bf83d2b153e82a3ae91d7062cd2f24aa3e2939b14cf1015b9453e45180342022-01-10 2:02:11393 days 16 hrs ago GMX: Router0x6d361440dd4746387eff1ae65ddbfe891059e0ce0.072954245781987156 ETH
0x4155ad033026ccf6b425bc321a883425ac4d729e64229d3a304a094da4a5760c44901102022-01-08 18:20:20394 days 23 hrs ago SushiSwap: Router0x6d361440dd4746387eff1ae65ddbfe891059e0ce0.052212341852806887 ETH
0xf958a1af510b6ebb6103765cae24c02681fcc7879c2987cb0de936b2f353aeeb44346982022-01-07 2:43:23396 days 15 hrs ago 0x6d361440dd4746387eff1ae65ddbfe891059e0ce 0x3f770ac673856f105b586bb393d122721265ad460 ETH
0x802d12ae62733913d85298cb5222d5ee4123b55b79e597e7984babcb418cb4cd35945782021-12-05 17:20:27429 days 43 mins ago SushiSwap: Router0x6d361440dd4746387eff1ae65ddbfe891059e0ce0.059187557476796337 ETH
0x87275f443a72ff8df3dafe674cc4b58033c023d6d07db1a40658c35d5a73833e28748512021-11-06 22:21:30457 days 19 hrs ago 0x530476d5583724a89c8841eb6da76e7af4c0f17e0x6d361440dd4746387eff1ae65ddbfe891059e0ce0.051579636811420174 ETH
0x730f140e823275e7fe486502f30d636e45e1a3747318361d8d09632ce585d5b326803802021-10-29 5:06:39466 days 12 hrs ago 0x6d361440dd4746387eff1ae65ddbfe891059e0ce 0x1efb3f88bc88f03fd1804a5c53b7141bbef5ded80 ETH
[ Download CSV Export 
Latest 11 Deposits
L2 Txn Hash L1 Deposit Txn Value Token
0x1ab2b7b32b9b2c5507e058849dd2336de8c86d8893f57c17161f43b4459d53862022-03-26 4:51:54318 days 13 hrs ago0xd211d2cd04a06f8fdd1940efa39584bde778c7366d7ef490668c1ce48c0dc1410.2 ETH
0xfc670cdeeda8b8f91b8ed44fff3aeb12d85b108ba9c07421868dd0d1170fa12a2021-10-27 3:17:16468 days 14 hrs ago0xdf07e30f9cd723e9bc5f6fc930da2330f4b421ef3bc70a2fcd61f0c5a17ceab50.28 ETH
0x22fd9652865cec0a2418c53833dfb1967cfa1b58140d3d1203a3ce86818e5fe82021-09-25 17:56:00500 days 8 mins ago0x00c683712f2dbd8ddd8342b4bbf1ba3bc6bbb5c42f24850080dcf6eabfc860d80.12 ETH
0xbcfbd7ad56d99c8ab3f05b5421e039dd37a197c2c6e6a72fb58d7356c00a62c32021-09-19 13:19:12506 days 4 hrs ago0xbb2ab960fcfdd61f49511107b437054a6628d396c06163e33dcefa580c6a0ec30.04 ETH
0x87940b03215c6f3b0d66389f0b13c49ae987c16e9fa3f7733f8bad083546432d2021-09-15 5:34:50510 days 12 hrs ago0xe3d2d174c72b8e8213722ad0ecc95ecc2526c68899a948780ae06ff0a941f5d30.05 ETH
0xeb66bed46e824982c285dcd38114067e1f40579b03d81fd8158a363ba747f3782021-09-13 3:11:23512 days 14 hrs ago0x9c5d0982ec84c87ebb9f29ca653e7ffe862df0b07699f89ae8aed4d20b0d9e210.036 ETH
0x24f942a1f0b7e3b383eed8bee24351e7bb036edac4995f3c3f597e3cdf8e4c4d2021-09-13 1:01:19512 days 17 hrs ago0x11339d729a7bc622eb53bd42e351e44c4ab69a8cc0646ec1ef6e0afe4b3955fd0.128 ETH
0x15569fc8475cfa641158c2fd0f6c36213634aee5ecb7e858540578d1791e9f102021-09-12 23:26:11512 days 18 hrs ago0xd2dd6e30278334e3fde2f3e54a333b8195dc4e0294cd07428a86ee6ccfd5e65d0.099 ETH
0x4cbffb1b518da0cc4e5bd8d3c8708fd5c2401a0df1587fb07fb54c90fbafd15f2021-09-12 17:36:37513 days 27 mins ago0x27b02cfea3466f6bd78fbb64fca44f4f5166fe8249c1743960c1f9ef2c25aeb90.07 ETH
0x99a798f44661e77181d8dde0fd27eb9ac5c0bbbc8dd900a1bfbd8af3307d587f2021-09-12 2:20:30513 days 15 hrs ago0x058f31b56980af6ade9a2bd55bc98798e7c0d95f24cb4b478c842978fe6804b80.02 ETH
0xf18e1db1e8779adf455977c30c752c6b98504161aaccd6e866e66fbf736d7f0b2021-09-12 0:31:33513 days 17 hrs ago0x7cfd8b11b9aca3ef974ffcf8f7dfff1e47aaa3e5dfed6711556e3bd3df0f92910.1 ETH
[ Download CSV Export 
Latest 1 Withdrawal
L2 Txn Hash Value Token Status L1 Withdrawal Txn
0x2a5387012bca9c762cf85e20fd628d6c43bf232e2ca97a9bb82792f578bcc0732021-11-06 22:52:48457 days 19 hrs ago0.01 ETHReady for Relay n/a
[ Download CSV Export 
Loading

Contract Name:
0 ETH

Compiler Version
0

Optimization Enabled:
0 ETH

Other Settings:
-NA-
Block Transaction Gas Used Reward
Age Block Fee Address BC Fee Address Voting Power Jailed Incoming
Block Uncle Number Difficulty Gas Used Reward
Loading
Make sure to use the "Vote Down" button for any spammy posts, and the "Vote Up" for interesting conversations.